GEONC-2 Weather Reports


time (UTC)temp
C
wind
direction
speed
KPH
gust
KPH
rain 1hr
cm
rain 24hr
cm
rain mn
cm
humidity
%
barometer
mb
20260510010519 30 0 0.0 0.0 0.00 0.00 0.00 55 981.1
20260510010419 30 0 0.0 0.0 0.00 0.00 0.00 54 981.2
20260510010319 30 0 0.0 0.0 0.00 0.00 0.00 54 981.2
20260510010219 30 0 0.0 0.0 0.00 0.00 0.00 53 981.1
20260510010119 30 0 0.0 0.0 0.00 0.00 0.00 53 981.1
20260510010019 31 0 0.0 0.0 0.00 0.00 0.00 53 981.2
20260510005918 31 0 0.0 0.0 0.00 0.00 0.00 54 981.2
20260510005818 31 0 0.0 0.0 0.00 0.00 0.00 54 981.2
20260510005718 31 0 0.0 0.0 0.00 0.00 0.00 54 981.2
20260510005617 31 0 0.0 0.0 0.00 0.00 0.00 56 981.2
20260510005517 31 0 0.0 0.0 0.00 0.00 0.00 56 981.2
20260510005417 31 0 0.0 0.0 0.00 0.00 0.00 56 981.1
20260510005317 31 0 0.0 0.0 0.00 0.00 0.00 57 981.1
20260510005216 30 0 0.0 0.0 0.00 0.00 0.00 57 981.1
20260510005117 30 0 0.0 0.0 0.00 0.00 0.00 59 981.1
20260510005016 30 0 0.0 0.0 0.00 0.00 0.00 59 981.1
20260510004916 30 0 0.0 0.0 0.00 0.00 0.00 58 981.0
20260510004816 30 0 0.0 0.0 0.00 0.00 0.00 58 981.0
20260510004715 30 0 0.0 0.0 0.00 0.00 0.00 57 981.1
20260510004615 30 0 0.0 0.0 0.00 0.00 0.00 56 981.2
20260510004515 30 0 0.0 0.0 0.00 0.00 0.00 56 981.2
20260510004415 30 0 0.0 0.0 0.00 0.00 0.00 55 981.3
20260510004314 30 0 0.0 0.0 0.00 0.00 0.00 55 981.1
20260510004214 30 0 0.0 0.0 0.00 0.00 0.00 54 981.1
20260510004114 30 0 0.0 0.0 0.00 0.00 0.00 52 981.1
20260510004014 30 0 0.0 0.0 0.00 0.00 0.00 52 981.1
20260510003914 30 0 0.0 0.0 0.00 0.00 0.00 51 981.2
20260510003813 30 0 0.0 0.0 0.00 0.00 0.00 56 981.4
20260510003713 30 0 0.0 0.0 0.00 0.00 0.00 57 981.4
20260510003613 30 0 0.0 0.0 0.00 0.00 0.00 56 981.3
20260510003512 30 0 0.0 0.0 0.00 0.00 0.00 54 981.3
20260510003412 30 0 0.0 0.0 0.00 0.00 0.00 54 981.3
20260510003312 30 0 0.0 0.0 0.00 0.00 0.00 56 981.3
20260510003212 30 0 0.0 0.0 0.00 0.00 0.00 56 981.3
20260510003112 30 0 0.0 0.0 0.00 0.00 0.00 56 981.4
20260510003011 30 0 0.0 0.0 0.00 0.00 0.00 56 981.4
20260510002911 30 0 0.0 0.0 0.00 0.00 0.00 57 981.4
20260510002811 30 0 0.0 0.0 0.00 0.00 0.00 57 981.4
20260510002711 30 0 0.0 0.0 0.00 0.00 0.00 57 981.4
20260510002610 30 0 0.0 0.0 0.00 0.00 0.00 57 981.3
20260510002510 30 0 0.0 0.0 0.00 0.00 0.00 57 981.3
20260510002410 30 0 0.0 0.0 0.00 0.00 0.00 57 981.3
20260510002310 30 0 0.0 0.0 0.00 0.00 0.00 57 981.4
20260510002209 30 0 0.0 0.0 0.00 0.00 0.00 57 981.5
20260510002109 30 0 0.0 0.0 0.00 0.00 0.00 58 981.5
20260510002009 30 0 0.0 0.0 0.00 0.00 0.00 58 981.6
20260510001909 30 0 0.0 0.0 0.00 0.00 0.00 58 981.6
20260510001809 30 0 0.0 0.0 0.00 0.00 0.00 59 981.6
20260510001708 30 0 0.0 0.0 0.00 0.00 0.00 59 981.7
20260510001608 30 0 0.0 0.0 0.00 0.00 0.00 58 981.7
20260510001508 30 0 0.0 0.0 0.00 0.00 0.00 57 981.6
20260510001408 30 0 0.0 0.0 0.00 0.00 0.00 57 981.7
20260510001307 30 0 0.0 0.0 0.00 0.00 0.00 58 981.7
20260510001207 30 0 0.0 0.0 0.00 0.00 0.00 59 981.7
20260510001107 30 0 0.0 0.0 0.00 0.00 0.00 60 981.7
20260510001007 29 0 0.0 0.0 0.00 0.00 0.00 61 981.7
20260510000906 29 0 0.0 0.0 0.00 0.00 0.00 61 981.7
20260510000806 29 0 0.0 0.0 0.00 0.00 0.00 62 981.7
20260510000706 29 0 0.0 0.0 0.00 0.00 0.00 61 981.7
20260510000606 29 0 0.0 0.0 0.00 0.00 0.00 60 981.8
20260510000506 29 0 0.0 0.0 0.00 0.00 0.00 59 981.8
20260510000405 29 0 0.0 0.0 0.00 0.00 0.00 60 981.8
20260510000305 29 0 0.0 0.0 0.00 0.00 0.00 60 981.8
20260510000205 29 0 0.0 0.0 0.00 0.00 0.00 60 981.8
20260510000105 29 0 0.0 0.0 0.00 0.00 0.00 60 981.9
20260510000005 29 0 0.0 0.0 0.00 0.00 0.00 60 982.0
20260509235904 29 0 0.0 0.0 0.00 0.00 0.00 61 982.0
20260509235804 29 0 0.0 0.0 0.00 0.00 0.00 61 982.0
20260509235704 29 0 0.0 0.0 0.00 0.00 0.00 63 982.0
20260509235604 28 0 0.0 0.0 0.00 0.00 0.00 63 982.0
20260509235503 28 0 0.0 0.0 0.00 0.00 0.00 63 982.0
20260509235403 28 0 0.0 0.0 0.00 0.00 0.00 62 982.0
20260509235306 28 0 0.0 0.0 0.00 0.00 0.00 63 982.0
20260509235203 28 0 0.0 0.0 0.00 0.00 0.00 62 982.0
20260509235103 28 0 0.0 0.0 0.00 0.00 0.00 63 982.2
20260509235002 28 0 0.0 0.0 0.00 0.00 0.00 60 982.1
20260509234902 28 0 0.0 0.0 0.00 0.00 0.00 60 982.1
20260509234802 28 0 0.0 0.0 0.00 0.00 0.00 64 982.2
20260509234702 28 0 0.0 0.0 0.00 0.00 0.00 65 982.1
20260509234601 28 0 0.0 0.0 0.00 0.00 0.00 64 982.0
20260509234501 28 0 0.0 0.0 0.00 0.00 0.00 65 982.0
20260509234401 28 0 0.0 0.0 0.00 0.00 0.00 65 982.1
20260509234301 28 0 0.0 0.0 0.00 0.00 0.00 64 982.1
20260509234201 28 0 0.0 0.0 0.00 0.00 0.00 64 982.1
20260509234100 28 0 0.0 0.0 0.00 0.00 0.00 65 982.1
20260509234000 28 0 0.0 0.0 0.00 0.00 0.00 64 982.1
20260509233900 28 0 0.0 0.0 0.00 0.00 0.00 64 982.0
20260509233800 28 0 0.0 0.0 0.00 0.00 0.00 64 982.1
20260509233700 28 0 0.0 0.0 0.00 0.00 0.00 63 982.1
20260509233559 28 0 0.0 0.0 0.00 0.00 0.00 64 982.1
20260509233459 28 0 0.0 0.0 0.00 0.00 0.00 64 982.1
20260509233359 28 0 0.0 0.0 0.00 0.00 0.00 63 982.0
20260509233259 28 0 0.0 0.0 0.00 0.00 0.00 63 982.1
20260509233159 28 0 0.0 0.0 0.00 0.00 0.00 62 982.1
20260509233058 28 0 0.0 0.0 0.00 0.00 0.00 62 982.1
20260509232958 28 0 0.0 0.0 0.00 0.00 0.00 63 982.2
20260509232858 28 0 0.0 0.0 0.00 0.00 0.00 66 982.3
20260509232758 28 0 0.0 0.0 0.00 0.00 0.00 63 982.2
20260509232658 28 0 0.0 0.0 0.00 0.00 0.00 65 982.2
20260509232558 28 0 0.0 0.0 0.00 0.00 0.00 65 982.2
20260509232457 28 0 0.0 0.0 0.00 0.00 0.00 63 982.2
20260509232357 28 0 0.0 0.0 0.00 0.00 0.00 63 982.2
20260509232257 28 0 0.0 0.0 0.00 0.00 0.00 63 982.2
20260509232157 28 0 0.0 0.0 0.00 0.00 0.00 63 982.3
20260509232057 28 0 0.0 0.0 0.00 0.00 0.00 62 982.2
20260509231956 28 0 0.0 0.0 0.00 0.00 0.00 62 982.3
20260509231856 28 0 0.0 0.0 0.00 0.00 0.00 62 982.3
20260509231756 28 0 0.0 0.0 0.00 0.00 0.00 62 982.3
20260509231656 28 0 0.0 0.0 0.00 0.00 0.00 63 982.3
20260509231556 28 0 0.0 0.0 0.00 0.00 0.00 64 982.3
20260509231455 28 0 0.0 0.0 0.00 0.00 0.00 64 982.3
20260509231355 28 0 0.0 0.0 0.00 0.00 0.00 64 982.3
20260509231255 28 0 0.0 0.0 0.00 0.00 0.00 64 982.3
20260509231155 28 0 0.0 0.0 0.00 0.00 0.00 64 982.3
20260509231055 29 0 0.0 0.0 0.00 0.00 0.00 64 982.3
20260509230954 29 0 0.0 0.0 0.00 0.00 0.00 64 982.2
20260509230854 29 0 0.0 0.0 0.00 0.00 0.00 63 982.2
20260509230754 29 0 0.0 0.0 0.00 0.00 0.00 63 982.2
20260509230654 29 0 0.0 0.0 0.00 0.00 0.00 62 982.3
20260509230554 29 0 0.0 0.0 0.00 0.00 0.00 62 982.3
20260509230453 29 0 0.0 0.0 0.00 0.00 0.00 62 982.3
20260509230353 29 0 0.0 0.0 0.00 0.00 0.00 62 982.2
20260509230253 29 0 0.0 0.0 0.00 0.00 0.00 62 982.3
20260509230153 29 0 0.0 0.0 0.00 0.00 0.00 62 982.3
20260509230053 29 0 0.0 0.0 0.00 0.00 0.00 63 982.3
20260509225953 29 0 0.0 0.0 0.00 0.00 0.00 63 982.3
20260509225852 29 0 0.0 0.0 0.00 0.00 0.00 64 982.3
20260509225752 29 0 0.0 0.0 0.00 0.00 0.00 63 982.3
20260509225652 29 0 0.0 0.0 0.00 0.00 0.00 63 982.3
20260509225552 29 0 0.0 0.0 0.00 0.00 0.00 65 982.3
20260509225452 29 0 0.0 0.0 0.00 0.00 0.00 66 982.3
20260509225351 29 0 0.0 0.0 0.00 0.00 0.00 66 982.3
20260509225251 29 0 0.0 0.0 0.00 0.00 0.00 68 982.3
20260509225151 28 0 0.0 0.0 0.00 0.00 0.00 69 982.3
20260509225051 28 0 0.0 0.0 0.00 0.00 0.00 69 982.3
20260509224951 28 0 0.0 0.0 0.00 0.00 0.00 68 982.3
20260509224850 28 0 0.0 0.0 0.00 0.00 0.00 68 982.3
20260509224750 28 0 0.0 0.0 0.00 0.00 0.00 67 982.4
20260509224650 28 0 0.0 0.0 0.00 0.00 0.00 67 982.4
20260509224550 28 0 0.0 0.0 0.00 0.00 0.00 67 982.3
20260509224450 28 0 0.0 0.0 0.00 0.00 0.00 66 982.3
20260509224349 28 0 0.0 0.0 0.00 0.00 0.00 65 982.4
20260509224249 28 0 0.0 0.0 0.00 0.00 0.00 65 982.4
20260509224149 28 0 0.0 0.0 0.00 0.00 0.00 64 982.4
20260509224049 28 0 0.0 0.0 0.00 0.00 0.00 64 982.4
20260509223949 28 0 0.0 0.0 0.00 0.00 0.00 64 982.4
20260509223849 28 0 0.0 0.0 0.00 0.00 0.00 63 982.4
20260509223748 28 0 0.0 0.0 0.00 0.00 0.00 63 982.4
20260509223648 28 0 0.0 0.0 0.00 0.00 0.00 63 982.3
20260509223548 29 0 0.0 0.0 0.00 0.00 0.00 63 982.3
20260509223448 29 0 0.0 0.0 0.00 0.00 0.00 63 982.3
20260509223348 29 0 0.0 0.0 0.00 0.00 0.00 63 982.2
20260509223247 29 0 0.0 0.0 0.00 0.00 0.00 63 982.2
20260509223147 29 0 0.0 0.0 0.00 0.00 0.00 63 982.3
20260509223047 29 0 0.0 0.0 0.00 0.00 0.00 63 982.2
20260509222947 29 0 0.0 0.0 0.00 0.00 0.00 63 982.3
20260509222847 29 0 0.0 0.0 0.00 0.00 0.00 65 982.3
20260509222747 29 0 0.0 0.0 0.00 0.00 0.00 66 982.3
20260509222646 29 0 0.0 0.0 0.00 0.00 0.00 66 982.3
20260509222546 29 0 0.0 0.0 0.00 0.00 0.00 66 982.3
20260509222446 29 0 0.0 0.0 0.00 0.00 0.00 65 982.2
20260509222346 29 0 0.0 0.0 0.00 0.00 0.00 66 982.2
20260509222245 29 0 0.0 0.0 0.00 0.00 0.00 66 982.2
20260509222145 29 0 0.0 0.0 0.00 0.00 0.00 65 982.2
20260509222045 29 0 0.0 0.0 0.00 0.00 0.00 65 982.2
20260509221945 28 0 0.0 0.0 0.00 0.00 0.00 66 982.2
20260509221845 28 0 0.0 0.0 0.00 0.00 0.00 67 982.2
20260509221744 28 0 0.0 0.0 0.00 0.00 0.00 68 982.2
20260509221644 28 0 0.0 0.0 0.00 0.00 0.00 68 982.2
20260509221544 28 0 0.0 0.0 0.00 0.00 0.00 69 982.2
20260509221444 28 0 0.0 0.0 0.00 0.00 0.00 71 982.3
20260509221344 28 0 0.0 0.0 0.00 0.00 0.00 71 982.3
20260509221243 28 0 0.0 0.0 0.00 0.00 0.00 73 982.2
20260509221143 28 0 0.0 0.0 0.00 0.00 0.00 75 982.2
20260509221043 27 0 0.0 0.0 0.00 0.00 0.00 78 982.3
20260509220943 27 0 0.0 0.0 0.00 0.00 0.00 78 982.3
20260509220843 27 0 0.0 0.0 0.00 0.00 0.00 79 982.3
20260509220743 27 0 0.0 0.0 0.00 0.00 0.00 80 982.2
20260509220642 27 0 0.0 0.0 0.00 0.00 0.00 81 982.2
20260509220542 27 0 0.0 0.0 0.00 0.00 0.00 82 982.2
20260509220442 26 0 0.0 0.0 0.00 0.00 0.00 82 982.2
20260509220342 26 0 0.0 0.0 0.00 0.00 0.00 83 982.2
20260509220242 26 0 0.0 0.0 0.00 0.00 0.00 84 982.3
20260509220141 26 0 0.0 0.0 0.00 0.00 0.00 84 982.2
20260509220041 26 0 0.0 0.0 0.00 0.00 0.00 84 982.3
20260509215941 26 0 0.0 0.0 0.00 0.00 0.00 84 982.3
20260509215841 26 0 0.0 0.0 0.00 0.00 0.00 84 982.4
20260509215741 25 0 0.0 0.0 0.00 0.00 0.00 84 982.3
20260509215641 25 0 0.0 0.0 0.00 0.00 0.00 85 982.3
20260509215540 25 0 0.0 0.0 0.00 0.00 0.00 86 982.3
20260509215440 25 0 0.0 0.0 0.00 0.00 0.00 87 982.3
20260509215340 25 0 0.0 0.0 0.00 0.00 0.00 87 982.2
20260509215240 25 0 0.0 0.0 0.00 0.00 0.00 87 982.3
20260509215140 25 0 0.0 0.0 0.00 0.00 0.00 87 982.3
20260509215039 25 0 0.0 0.0 0.00 0.00 0.00 88 982.2
20260509214939 25 0 0.0 0.0 0.00 0.00 0.00 88 982.3
20260509214839 25 0 0.0 0.0 0.00 0.00 0.00 88 982.2
20260509214739 25 0 0.0 0.0 0.00 0.00 0.00 88 982.3
20260509214639 25 0 0.0 0.0 0.00 0.00 0.00 89 982.2
20260509214539 25 0 0.0 0.0 0.00 0.00 0.00 89 982.3
20260509214438 25 0 0.0 0.0 0.00 0.00 0.00 89 982.2
20260509214338 25 0 0.0 0.0 0.00 0.00 0.00 89 982.2
20260509214238 25 0 0.0 0.0 0.00 0.00 0.00 90 982.2
20260509214138 25 0 0.0 0.0 0.00 0.00 0.00 91 982.3
20260509214038 24 0 0.0 0.0 0.00 0.00 0.00 91 982.2
20260509213938 24 0 0.0 0.0 0.00 0.00 0.00 91 982.2
20260509213837 24 0 0.0 0.0 0.00 0.00 0.00 92 982.1
20260509213737 24 0 0.0 0.0 0.00 0.00 0.00 91 982.1
20260509213637 24 0 0.0 0.0 0.00 0.00 0.00 92 982.2
20260509213537 24 0 0.0 0.0 0.00 0.00 0.00 91 982.1
20260509213437 24 0 0.0 0.0 0.00 0.00 0.00 92 982.2
20260509213337 24 0 0.0 0.0 0.00 0.00 0.00 92 982.1
20260509213237 24 0 0.0 0.0 0.00 0.00 0.00 92 982.1
20260509213136 23 0 0.0 0.0 0.00 0.00 0.00 92 982.1
20260509213036 23 0 0.0 0.0 0.00 0.00 0.00 92 982.1
20260509212936 23 0 0.0 0.0 0.00 0.00 0.00 92 982.0
20260509212836 23 0 0.0 0.0 0.00 0.00 0.00 92 982.1
20260509212736 23 0 0.0 0.0 0.00 0.00 0.00 92 982.1
20260509212635 23 0 0.0 0.0 0.00 0.00 0.00 92 982.1
20260509212535 23 0 0.0 0.0 0.00 0.00 0.00 92 982.1
20260509212435 23 0 0.0 0.0 0.00 0.00 0.00 92 982.1
20260509212335 23 0 0.0 0.0 0.00 0.00 0.00 93 982.1
20260509212235 23 0 0.0 0.0 0.00 0.00 0.00 94 982.0
20260509212135 23 0 0.0 0.0 0.00 0.00 0.00 95 982.1
20260509212034 23 0 0.0 0.0 0.00 0.00 0.00 96 982.2
20260509211934 23 0 0.0 0.0 0.00 0.00 0.00 96 982.1
20260509211834 23 0 0.0 0.0 0.00 0.00 0.00 96 982.1
20260509211734 23 0 0.0 0.0 0.00 0.00 0.00 96 982.1
20260509211634 23 0 0.0 0.0 0.00 0.00 0.00 96 982.1
20260509211534 23 0 0.0 0.0 0.00 0.00 0.00 96 982.1
20260509211433 23 0 0.0 0.0 0.00 0.00 0.00 96 982.0
20260509211333 23 0 0.0 0.0 0.00 0.00 0.00 96 982.0
20260509211233 23 0 0.0 0.0 0.00 0.00 0.00 96 982.0
20260509211133 23 0 0.0 0.0 0.00 0.00 0.00 96 982.0
20260509211033 23 0 0.0 0.0 0.00 0.00 0.00 96 981.9
20260509210932 23 0 0.0 0.0 0.00 0.00 0.00 96 982.0
20260509210832 23 0 0.0 0.0 0.00 0.00 0.00 96 982.0
20260509210732 23 0 0.0 0.0 0.00 0.00 0.00 96 982.0
20260509210632 23 0 0.0 0.0 0.00 0.00 0.00 96 982.0
20260509210532 23 0 0.0 0.0 0.00 0.00 0.00 96 981.9
20260509210432 23 0 0.0 0.0 0.00 0.00 0.00 96 981.9
20260509210331 23 0 0.0 0.0 0.00 0.00 0.00 96 981.9
20260509210231 23 0 0.0 0.0 0.00 0.00 0.00 96 981.9
20260509210131 23 0 0.0 0.0 0.00 0.00 0.00 96 982.0
20260509210031 23 0 0.0 0.0 0.00 0.00 0.00 96 982.0
20260509205931 23 0 0.0 0.0 0.00 0.00 0.00 96 981.9
20260509205831 23 0 0.0 0.0 0.00 0.00 0.00 96 981.9
20260509205731 23 0 0.0 0.0 0.00 0.00 0.00 96 982.0
20260509205630 23 0 0.0 0.0 0.00 0.00 0.00 97 981.9
20260509205530 23 0 0.0 0.0 0.00 0.00 0.00 97 981.9
20260509205430 23 0 0.0 0.0 0.00 0.00 0.00 98 981.9
20260509205330 23 0 0.0 0.0 0.00 0.00 0.00 98 981.9
20260509205230 23 0 0.0 0.0 0.00 0.00 0.00 98 982.0
20260509205130 23 0 0.0 0.0 0.00 0.00 0.00 98 981.9
20260509205029 23 0 0.0 0.0 0.00 0.00 0.00 98 981.9
20260509204929 23 0 0.0 0.0 0.00 0.00 0.00 99 982.0
20260509204829 23 0 0.0 0.0 0.00 0.00 0.00 99 982.0
20260509204729 23 0 0.0 0.0 0.00 0.00 0.00 99 981.9
20260509204629 23 0 0.0 0.0 0.00 0.00 0.00 99 981.9
20260509204529 23 0 0.0 0.0 0.00 0.00 0.00 99 981.8
20260509204428 23 0 0.0 0.0 0.00 0.00 0.00 99 981.8
20260509204328 22 0 0.0 0.0 0.00 0.00 0.00 99 981.7
20260509204228 22 0 0.0 0.0 0.00 0.00 0.00 99 981.9
20260509204128 22 0 0.0 0.0 0.00 0.00 0.00 99 981.8
20260509204028 22 0 0.0 0.0 0.00 0.00 0.00 99 981.8
20260509203928 22 0 0.0 0.0 0.00 0.00 0.00 99 981.8
20260509203828 22 0 0.0 0.0 0.00 0.00 0.00 99 981.8
20260509203727 22 0 0.0 0.0 0.00 0.00 0.00 99 981.8
20260509203627 22 0 0.0 0.0 0.00 0.00 0.00 99 981.8
20260509203527 22 0 0.0 0.0 0.00 0.00 0.00 99 981.7
20260509203427 22 0 0.0 0.0 0.00 0.00 0.00 99 981.7
20260509203327 22 0 0.0 0.0 0.00 0.00 0.00 99 981.8
20260509203227 22 0 0.0 0.0 0.00 0.00 0.00 99 981.7
20260509203126 22 0 0.0 0.0 0.00 0.00 0.00 99 981.8
20260509203026 22 0 0.0 0.0 0.00 0.00 0.00 99 981.8
20260509202926 22 0 0.0 0.0 0.00 0.00 0.00 99 981.8
20260509202826 22 0 0.0 0.0 0.00 0.00 0.00 99 981.8
20260509202726 22 0 0.0 0.0 0.00 0.00 0.00 99 981.8
20260509202626 22 0 0.0 0.0 0.00 0.00 0.00 99 981.8
20260509202526 21 0 0.0 0.0 0.00 0.00 0.00 99 981.8
20260509202425 21 0 0.0 0.0 0.00 0.00 0.00 99 981.8
20260509202325 21 0 0.0 0.0 0.00 0.00 0.00 99 981.8
20260509202225 21 0 0.0 0.0 0.00 0.00 0.00 99 981.8
20260509202125 21 0 0.0 0.0 0.00 0.00 0.00 99 981.9
20260509202025 21 0 0.0 0.0 0.00 0.00 0.00 99 981.8
20260509201925 21 0 0.0 0.0 0.00 0.00 0.00 99 981.9
20260509201825 21 0 0.0 0.0 0.00 0.00 0.00 99 981.8
20260509201724 20 0 0.0 0.0 0.00 0.00 0.00 99 981.8
20260509201624 20 0 0.0 0.0 0.00 0.00 0.00 99 981.9
20260509201524 20 0 0.0 0.0 0.00 0.00 0.00 99 981.9
20260509201424 20 0 0.0 0.0 0.00 0.00 0.00 99 981.8
20260509121051 24 0 0.0 0.0 0.00 0.00 0.00 86 980.5
20260509120951 24 0 0.0 0.0 0.00 0.00 0.00 85 980.5
20260509120851 24 0 0.0 0.0 0.00 0.00 0.00 85 980.6
20260509120750 24 0 0.0 0.0 0.00 0.00 0.00 85 980.5
20260509120650 24 0 0.0 0.0 0.00 0.00 0.00 85 980.5
20260509120550 24 0 0.0 0.0 0.00 0.00 0.00 85 980.5
20260509120450 24 0 0.0 0.0 0.00 0.00 0.00 85 980.5
20260509120350 24 0 0.0 0.0 0.00 0.00 0.00 85 980.5
20260509120249 24 0 0.0 0.0 0.00 0.00 0.00 85 980.5
20260509120149 24 0 0.0 0.0 0.00 0.00 0.00 85 980.5
20260509120049 24 0 0.0 0.0 0.00 0.00 0.00 85 980.5
20260509115949 24 0 0.0 0.0 0.00 0.00 0.00 85 980.5
20260509115849 24 0 0.0 0.0 0.00 0.00 0.00 85 980.5
20260509115749 24 0 0.0 0.0 0.00 0.00 0.00 85 980.5
20260509115648 24 0 0.0 0.0 0.00 0.00 0.00 85 980.5
20260509115548 24 0 0.0 0.0 0.00 0.00 0.00 85 980.6
20260509115448 24 0 0.0 0.0 0.00 0.00 0.00 85 980.6
20260509115348 24 0 0.0 0.0 0.00 0.00 0.00 85 980.5
20260509115248 24 0 0.0 0.0 0.00 0.00 0.00 85 980.5
20260509115147 24 0 0.0 0.0 0.00 0.00 0.00 85 980.5
20260509115047 24 0 0.0 0.0 0.00 0.00 0.00 85 980.5
20260509114947 24 0 0.0 0.0 0.00 0.00 0.00 85 980.6
20260509114847 24 0 0.0 0.0 0.00 0.00 0.00 85 980.6
20260509114747 25 0 0.0 0.0 0.00 0.00 0.00 84 980.5
20260509114647 25 0 0.0 0.0 0.00 0.00 0.00 84 980.6
20260509114546 24 0 0.0 0.0 0.00 0.00 0.00 84 980.6
20260509114446 25 0 0.0 0.0 0.00 0.00 0.00 84 980.6
20260509114346 25 0 0.0 0.0 0.00 0.00 0.00 84 980.6
20260509114246 25 0 0.0 0.0 0.00 0.00 0.00 84 980.6
20260509114146 25 0 0.0 0.0 0.00 0.00 0.00 84 980.6
20260509114045 25 0 0.0 0.0 0.00 0.00 0.00 84 980.6
20260509113945 25 0 0.0 0.0 0.00 0.00 0.00 84 980.6
20260509113845 25 0 0.0 0.0 0.00 0.00 0.00 84 980.5
20260509113745 25 0 0.0 0.0 0.00 0.00 0.00 84 980.5
20260509113645 25 0 0.0 0.0 0.00 0.00 0.00 84 980.5
20260509113545 25 0 0.0 0.0 0.00 0.00 0.00 84 980.5
20260509113444 25 0 0.0 0.0 0.00 0.00 0.00 84 980.4
20260509113344 25 0 0.0 0.0 0.00 0.00 0.00 84 980.4
20260509113244 25 0 0.0 0.0 0.00 0.00 0.00 84 980.4
20260509113144 25 0 0.0 0.0 0.00 0.00 0.00 84 980.4
20260509113044 25 0 0.0 0.0 0.00 0.00 0.00 84 980.4
20260509112943 25 0 0.0 0.0 0.00 0.00 0.00 84 980.4
20260509112843 25 0 0.0 0.0 0.00 0.00 0.00 84 980.4
20260509112743 25 0 0.0 0.0 0.00 0.00 0.00 84 980.4
20260509112643 25 0 0.0 0.0 0.00 0.00 0.00 84 980.4
20260509112543 25 0 0.0 0.0 0.00 0.00 0.00 84 980.4
20260509112443 25 0 0.0 0.0 0.00 0.00 0.00 84 980.4
20260509112343 25 0 0.0 0.0 0.00 0.00 0.00 84 980.4
20260509112242 25 0 0.0 0.0 0.00 0.00 0.00 84 980.5
20260509112142 25 0 0.0 0.0 0.00 0.00 0.00 84 980.5
20260509112042 25 0 0.0 0.0 0.00 0.00 0.00 84 980.4
20260509111942 25 0 0.0 0.0 0.00 0.00 0.00 84 980.5
20260509111842 25 0 0.0 0.0 0.00 0.00 0.00 84 980.5
20260509111742 25 0 0.0 0.0 0.00 0.00 0.00 83 980.5
20260509111641 25 0 0.0 0.0 0.00 0.00 0.00 83 980.5
20260509111541 25 0 0.0 0.0 0.00 0.00 0.00 84 980.4
20260509111441 25 0 0.0 0.0 0.00 0.00 0.00 84 980.5
20260509111341 25 0 0.0 0.0 0.00 0.00 0.00 84 980.5
20260509111241 25 0 0.0 0.0 0.00 0.00 0.00 84 980.5
20260509111141 25 0 0.0 0.0 0.00 0.00 0.00 84 980.4
20260509111040 25 0 0.0 0.0 0.00 0.00 0.00 83 980.4
20260509110940 25 0 0.0 0.0 0.00 0.00 0.00 84 980.4
20260509110840 25 0 0.0 0.0 0.00 0.00 0.00 84 980.4
20260509110740 25 0 0.0 0.0 0.00 0.00 0.00 83 980.4
20260509110640 25 0 0.0 0.0 0.00 0.00 0.00 83 980.4
20260509110540 25 0 0.0 0.0 0.00 0.00 0.00 83 980.4
20260509110439 25 0 0.0 0.0 0.00 0.00 0.00 83 980.4
20260509110339 25 0 0.0 0.0 0.00 0.00 0.00 83 980.5
20260509110239 25 0 0.0 0.0 0.00 0.00 0.00 83 980.5
20260509110139 25 0 0.0 0.0 0.00 0.00 0.00 83 980.5
20260509110039 25 0 0.0 0.0 0.00 0.00 0.00 83 980.5
20260509105939 25 0 0.0 0.0 0.00 0.00 0.00 83 980.5
20260509105838 25 0 0.0 0.0 0.00 0.00 0.00 83 980.5
20260509105738 25 0 0.0 0.0 0.00 0.00 0.00 83 980.5
20260509105638 25 0 0.0 0.0 0.00 0.00 0.00 83 980.5
20260509105538 25 0 0.0 0.0 0.00 0.00 0.00 83 980.5
20260509105438 25 0 0.0 0.0 0.00 0.00 0.00 83 980.5
20260509105338 25 0 0.0 0.0 0.00 0.00 0.00 83 980.5
20260509105237 25 0 0.0 0.0 0.00 0.00 0.00 83 980.5
20260509105137 25 0 0.0 0.0 0.00 0.00 0.00 83 980.5
20260509105037 25 0 0.0 0.0 0.00 0.00 0.00 83 980.5
20260509104937 25 0 0.0 0.0 0.00 0.00 0.00 83 980.5
20260509104837 25 0 0.0 0.0 0.00 0.00 0.00 83 980.5
20260509104737 25 0 0.0 0.0 0.00 0.00 0.00 83 980.5
20260509104636 25 0 0.0 0.0 0.00 0.00 0.00 83 980.5
20260509104536 25 0 0.0 0.0 0.00 0.00 0.00 83 980.5
20260509104436 25 0 0.0 0.0 0.00 0.00 0.00 83 980.5
20260509104336 25 0 0.0 0.0 0.00 0.00 0.00 83 980.5
20260509104236 25 0 0.0 0.0 0.00 0.00 0.00 83 980.5
20260509104136 25 0 0.0 0.0 0.00 0.00 0.00 83 980.5
20260509104035 25 0 0.0 0.0 0.00 0.00 0.00 83 980.5
20260509103935 25 0 0.0 0.0 0.00 0.00 0.00 83 980.5
20260509103835 25 0 0.0 0.0 0.00 0.00 0.00 83 980.5
20260509103735 25 0 0.0 0.0 0.00 0.00 0.00 83 980.5
20260509103635 25 0 0.0 0.0 0.00 0.00 0.00 83 980.5
20260509103534 25 0 0.0 0.0 0.00 0.00 0.00 83 980.5
20260509103434 25 0 0.0 0.0 0.00 0.00 0.00 83 980.4
20260509103334 25 0 0.0 0.0 0.00 0.00 0.00 83 980.4
20260509103234 25 0 0.0 0.0 0.00 0.00 0.00 83 980.5
20260509103134 25 0 0.0 0.0 0.00 0.00 0.00 83 980.5
20260509103034 25 0 0.0 0.0 0.00 0.00 0.00 83 980.5
20260509102934 25 0 0.0 0.0 0.00 0.00 0.00 82 980.5
20260509102833 25 0 0.0 0.0 0.00 0.00 0.00 82 980.5
20260509102733 25 0 0.0 0.0 0.00 0.00 0.00 82 980.5
20260509102633 25 0 0.0 0.0 0.00 0.00 0.00 82 980.5
20260509102533 25 0 0.0 0.0 0.00 0.00 0.00 82 980.5
20260509102433 25 0 0.0 0.0 0.00 0.00 0.00 82 980.5
20260509102333 25 0 0.0 0.0 0.00 0.00 0.00 82 980.4
20260509102232 25 0 0.0 0.0 0.00 0.00 0.00 82 980.4
20260509102132 25 0 0.0 0.0 0.00 0.00 0.00 82 980.5
20260509102032 25 0 0.0 0.0 0.00 0.00 0.00 82 980.4
20260509101932 25 0 0.0 0.0 0.00 0.00 0.00 82 980.5
20260509101832 25 0 0.0 0.0 0.00 0.00 0.00 82 980.4
20260509101731 25 0 0.0 0.0 0.00 0.00 0.00 82 980.4
20260509101631 25 0 0.0 0.0 0.00 0.00 0.00 82 980.4
20260509101531 25 0 0.0 0.0 0.00 0.00 0.00 82 980.4
20260509101431 25 0 0.0 0.0 0.00 0.00 0.00 82 980.4
20260509101331 25 0 0.0 0.0 0.00 0.00 0.00 82 980.5
20260509101231 25 0 0.0 0.0 0.00 0.00 0.00 82 980.4
20260509101130 25 0 0.0 0.0 0.00 0.00 0.00 82 980.5
20260509101030 25 0 0.0 0.0 0.00 0.00 0.00 82 980.5
20260509100930 25 0 0.0 0.0 0.00 0.00 0.00 82 980.5
20260509100830 25 0 0.0 0.0 0.00 0.00 0.00 82 980.5
20260509100730 25 0 0.0 0.0 0.00 0.00 0.00 82 980.5
20260509100630 25 0 0.0 0.0 0.00 0.00 0.00 82 980.4
20260509100529 25 0 0.0 0.0 0.00 0.00 0.00 82 980.5
20260509100429 25 0 0.0 0.0 0.00 0.00 0.00 82 980.5
20260509100329 25 0 0.0 0.0 0.00 0.00 0.00 82 980.5
20260509100229 25 0 0.0 0.0 0.00 0.00 0.00 82 980.5
20260509100129 25 0 0.0 0.0 0.00 0.00 0.00 82 980.5
20260509100029 25 0 0.0 0.0 0.00 0.00 0.00 82 980.4
20260509095928 25 0 0.0 0.0 0.00 0.00 0.00 83 980.4
20260509095828 25 0 0.0 0.0 0.00 0.00 0.00 83 980.4
20260509095728 25 0 0.0 0.0 0.00 0.00 0.00 83 980.5
20260509095628 25 0 0.0 0.0 0.00 0.00 0.00 83 980.5
20260509095528 25 0 0.0 0.0 0.00 0.00 0.00 83 980.5
20260509095428 25 0 0.0 0.0 0.00 0.00 0.00 83 980.5
20260509095327 25 0 0.0 0.0 0.00 0.00 0.00 83 980.5
20260509095227 25 0 0.0 0.0 0.00 0.00 0.00 83 980.5
20260509095127 25 0 0.0 0.0 0.00 0.00 0.00 83 980.5
20260509095027 25 0 0.0 0.0 0.00 0.00 0.00 83 980.6
20260509094927 25 0 0.0 0.0 0.00 0.00 0.00 83 980.6
20260509094826 25 0 0.0 0.0 0.00 0.00 0.00 83 980.5
20260509094726 25 0 0.0 0.0 0.00 0.00 0.00 83 980.5
20260509094626 25 0 0.0 0.0 0.00 0.00 0.00 83 980.5
20260509094526 25 0 0.0 0.0 0.00 0.00 0.00 83 980.5
20260509094426 25 0 0.0 0.0 0.00 0.00 0.00 83 980.5
20260509094326 25 0 0.0 0.0 0.00 0.00 0.00 83 980.5
20260509094225 25 0 0.0 0.0 0.00 0.00 0.00 83 980.5
20260509094125 25 0 0.0 0.0 0.00 0.00 0.00 83 980.5
20260509094025 25 0 0.0 0.0 0.00 0.00 0.00 83 980.5
20260509093925 25 0 0.0 0.0 0.00 0.00 0.00 83 980.5
20260509093825 25 0 0.0 0.0 0.00 0.00 0.00 83 980.5
20260509093725 25 0 0.0 0.0 0.00 0.00 0.00 83 980.6
20260509093625 25 0 0.0 0.0 0.00 0.00 0.00 83 980.6
20260509093524 25 0 0.0 0.0 0.00 0.00 0.00 83 980.6
20260509093424 25 0 0.0 0.0 0.00 0.00 0.00 83 980.6
20260509093324 25 0 0.0 0.0 0.00 0.00 0.00 83 980.6
20260509093224 25 0 0.0 0.0 0.00 0.00 0.00 83 980.6
20260509093124 25 0 0.0 0.0 0.00 0.00 0.00 83 980.6
20260509093023 25 0 0.0 0.0 0.00 0.00 0.00 83 980.6
20260509092923 25 0 0.0 0.0 0.00 0.00 0.00 83 980.6
20260509092823 25 0 0.0 0.0 0.00 0.00 0.00 83 980.6
20260509092723 25 0 0.0 0.0 0.00 0.00 0.00 83 980.6
20260509092623 25 0 0.0 0.0 0.00 0.00 0.00 83 980.6
20260509092523 25 0 0.0 0.0 0.00 0.00 0.00 83 980.5
20260509092422 25 0 0.0 0.0 0.00 0.00 0.00 83 980.5
20260509092322 25 0 0.0 0.0 0.00 0.00 0.00 83 980.5
20260509092222 25 0 0.0 0.0 0.00 0.00 0.00 83 980.4
20260509092122 25 0 0.0 0.0 0.00 0.00 0.00 83 980.5
20260509092022 25 0 0.0 0.0 0.00 0.00 0.00 83 980.5
20260509091921 25 0 0.0 0.0 0.00 0.00 0.00 83 980.4
20260509091821 25 0 0.0 0.0 0.00 0.00 0.00 83 980.4
20260509091721 25 0 0.0 0.0 0.00 0.00 0.00 83 980.3
20260509091621 25 0 0.0 0.0 0.00 0.00 0.00 82 980.3
20260509091521 25 0 0.0 0.0 0.00 0.00 0.00 82 980.3
20260509091420 25 0 0.0 0.0 0.00 0.00 0.00 82 980.2
20260509091320 25 0 0.0 0.0 0.00 0.00 0.00 82 980.2
20260509091220 25 0 0.0 0.0 0.00 0.00 0.00 82 980.2
20260509091120 25 0 0.0 0.0 0.00 0.00 0.00 82 980.2
20260509091020 25 0 0.0 0.0 0.00 0.00 0.00 82 980.2
20260509090920 25 0 0.0 0.0 0.00 0.00 0.00 82 980.2
20260509090819 25 0 0.0 0.0 0.00 0.00 0.00 82 980.3
20260509090719 25 0 0.0 0.0 0.00 0.00 0.00 82 980.3
20260509090619 25 0 0.0 0.0 0.00 0.00 0.00 82 980.2
20260509090519 25 0 0.0 0.0 0.00 0.00 0.00 82 980.2
20260509090419 25 0 0.0 0.0 0.00 0.00 0.00 81 980.2
20260509090319 25 0 0.0 0.0 0.00 0.00 0.00 81 980.2
20260509090218 25 0 0.0 0.0 0.00 0.00 0.00 81 980.2
20260509090118 25 0 0.0 0.0 0.00 0.00 0.00 81 980.2
20260509090018 25 0 0.0 0.0 0.00 0.00 0.00 81 980.2
20260509085918 25 0 0.0 0.0 0.00 0.00 0.00 81 980.2
20260509085818 25 0 0.0 0.0 0.00 0.00 0.00 81 980.2
20260509085718 25 0 0.0 0.0 0.00 0.00 0.00 80 980.2
20260509085617 25 0 0.0 0.0 0.00 0.00 0.00 80 980.2
20260509085517 25 0 0.0 0.0 0.00 0.00 0.00 80 980.2
20260509085417 25 0 0.0 0.0 0.00 0.00 0.00 80 980.1
20260509085317 25 0 0.0 0.0 0.00 0.00 0.00 80 980.1
20260509085217 25 0 0.0 0.0 0.00 0.00 0.00 80 980.1
20260509085117 25 0 0.0 0.0 0.00 0.00 0.00 79 980.1
20260509085017 25 0 0.0 0.0 0.00 0.00 0.00 79 980.1
20260509084916 25 0 0.0 0.0 0.00 0.00 0.00 79 980.1
20260509084816 25 0 0.0 0.0 0.00 0.00 0.00 79 980.1
20260509084716 25 0 0.0 0.0 0.00 0.00 0.00 79 980.1
20260509084616 25 0 0.0 0.0 0.00 0.00 0.00 79 980.1
20260509084516 25 0 0.0 0.0 0.00 0.00 0.00 79 980.1
20260509084416 25 0 0.0 0.0 0.00 0.00 0.00 79 980.1
20260509084315 25 0 0.0 0.0 0.00 0.00 0.00 79 980.0
20260509084215 25 0 0.0 0.0 0.00 0.00 0.00 79 980.0
20260509084115 25 0 0.0 0.0 0.00 0.00 0.00 78 980.0
20260509084015 25 0 0.0 0.0 0.00 0.00 0.00 78 980.0
20260509083915 25 0 0.0 0.0 0.00 0.00 0.00 78 980.0
20260509083815 25 0 0.0 0.0 0.00 0.00 0.00 78 980.0
20260509083714 25 0 0.0 0.0 0.00 0.00 0.00 78 980.0
20260509083614 25 0 0.0 0.0 0.00 0.00 0.00 78 979.9
20260509083514 25 0 0.0 0.0 0.00 0.00 0.00 77 980.0
20260509083414 25 0 0.0 0.0 0.00 0.00 0.00 77 979.9
20260509083314 25 0 0.0 0.0 0.00 0.00 0.00 77 979.9
20260509083214 25 0 0.0 0.0 0.00 0.00 0.00 77 979.9
20260509083113 25 0 0.0 0.0 0.00 0.00 0.00 77 979.9
20260509083013 25 0 0.0 0.0 0.00 0.00 0.00 77 979.9
20260509082913 25 0 0.0 0.0 0.00 0.00 0.00 77 979.8
20260509082813 25 0 0.0 0.0 0.00 0.00 0.00 77 979.9
20260509082713 25 0 0.0 0.0 0.00 0.00 0.00 76 979.9
20260509082613 25 0 0.0 0.0 0.00 0.00 0.00 76 979.8
20260509082512 25 0 0.0 0.0 0.00 0.00 0.00 76 979.8
20260509082412 25 0 0.0 0.0 0.00 0.00 0.00 76 979.8
20260509082312 25 0 0.0 0.0 0.00 0.00 0.00 76 979.7
20260509082212 25 0 0.0 0.0 0.00 0.00 0.00 76 979.7
20260509082111 25 0 0.0 0.0 0.00 0.00 0.00 76 979.7
20260509082011 25 0 0.0 0.0 0.00 0.00 0.00 76 979.7
20260509081911 25 0 0.0 0.0 0.00 0.00 0.00 76 979.7
20260509081811 25 0 0.0 0.0 0.00 0.00 0.00 76 979.7
20260509081711 25 0 0.0 0.0 0.00 0.00 0.00 76 979.7
20260509081610 26 0 0.0 0.0 0.00 0.00 0.00 76 979.8
20260509081510 26 0 0.0 0.0 0.00 0.00 0.00 76 979.7
20260509081410 26 0 0.0 0.0 0.00 0.00 0.00 76 979.7
20260509081310 26 0 0.0 0.0 0.00 0.00 0.00 76 979.8
20260509081210 26 0 0.0 0.0 0.00 0.00 0.00 76 979.8
20260509081110 26 0 0.0 0.0 0.00 0.00 0.00 76 979.8
20260509081009 26 0 0.0 0.0 0.00 0.00 0.00 76 979.8
20260509080909 26 0 0.0 0.0 0.00 0.00 0.00 76 979.8
20260509080809 26 0 0.0 0.0 0.00 0.00 0.00 75 979.8
20260509080709 26 0 0.0 0.0 0.00 0.00 0.00 75 979.8
20260509080609 26 0 0.0 0.0 0.00 0.00 0.00 75 979.8
20260509080508 26 0 0.0 0.0 0.00 0.00 0.00 75 979.8
20260509080408 26 0 0.0 0.0 0.00 0.00 0.00 75 979.8
20260509080308 26 0 0.0 0.0 0.00 0.00 0.00 75 979.8
20260509080208 26 0 0.0 0.0 0.00 0.00 0.00 75 979.7
20260509080108 26 0 0.0 0.0 0.00 0.00 0.00 75 979.7
20260509080007 26 0 0.0 0.0 0.00 0.00 0.00 75 979.7
20260509075907 26 0 0.0 0.0 0.00 0.00 0.00 75 979.7
20260509075807 26 0 0.0 0.0 0.00 0.00 0.00 75 979.7
20260509075707 26 0 0.0 0.0 0.00 0.00 0.00 75 979.7
20260509075607 26 0 0.0 0.0 0.00 0.00 0.00 75 979.7
20260509075506 26 0 0.0 0.0 0.00 0.00 0.00 75 979.7
20260509075406 26 0 0.0 0.0 0.00 0.00 0.00 75 979.7
20260509075306 26 0 0.0 0.0 0.00 0.00 0.00 75 979.7
20260509075206 26 0 0.0 0.0 0.00 0.00 0.00 74 979.7
20260509075106 26 0 0.0 0.0 0.00 0.00 0.00 75 979.7
20260509075005 26 0 0.0 0.0 0.00 0.00 0.00 74 979.7
20260509074905 26 0 0.0 0.0 0.00 0.00 0.00 74 979.7
20260509074805 26 0 0.0 0.0 0.00 0.00 0.00 74 979.6
20260509074705 26 0 0.0 0.0 0.00 0.00 0.00 74 979.6
20260509074605 26 0 0.0 0.0 0.00 0.00 0.00 74 979.6
20260509074504 26 0 0.0 0.0 0.00 0.00 0.00 74 979.6
20260509074404 26 0 0.0 0.0 0.00 0.00 0.00 74 979.6
20260509074304 26 0 0.0 0.0 0.00 0.00 0.00 74 979.6
20260509074204 26 0 0.0 0.0 0.00 0.00 0.00 74 979.6
20260509074104 26 0 0.0 0.0 0.00 0.00 0.00 74 979.6
20260509074003 26 0 0.0 0.0 0.00 0.00 0.00 74 979.6
20260509073903 26 0 0.0 0.0 0.00 0.00 0.00 74 979.6
20260509073803 26 0 0.0 0.0 0.00 0.00 0.00 74 979.6
20260509073703 26 0 0.0 0.0 0.00 0.00 0.00 74 979.6
20260509073603 26 0 0.0 0.0 0.00 0.00 0.00 74 979.6
20260509073502 26 0 0.0 0.0 0.00 0.00 0.00 74 979.6
20260509073402 26 0 0.0 0.0 0.00 0.00 0.00 74 979.5
20260509073302 26 0 0.0 0.0 0.00 0.00 0.00 74 979.5
20260509073202 26 0 0.0 0.0 0.00 0.00 0.00 74 979.6
20260509073102 26 0 0.0 0.0 0.00 0.00 0.00 74 979.6
20260509073002 26 0 0.0 0.0 0.00 0.00 0.00 74 979.6
20260509072901 26 0 0.0 0.0 0.00 0.00 0.00 74 979.6
20260509072802 26 0 0.0 0.0 0.00 0.00 0.00 74 979.5
20260509072701 26 0 0.0 0.0 0.00 0.00 0.00 74 979.5
20260509072601 26 0 0.0 0.0 0.00 0.00 0.00 74 979.5
20260509072501 26 0 0.0 0.0 0.00 0.00 0.00 73 979.5
20260509072400 26 0 0.0 0.0 0.00 0.00 0.00 73 979.5
20260509072300 26 0 0.0 0.0 0.00 0.00 0.00 73 979.5
20260509072200 26 0 0.0 0.0 0.00 0.00 0.00 73 979.5
20260509072100 26 0 0.0 0.0 0.00 0.00 0.00 73 979.6
20260509072000 26 0 0.0 0.0 0.00 0.00 0.00 73 979.5
20260509071859 26 0 0.0 0.0 0.00 0.00 0.00 73 979.6
20260509071759 26 0 0.0 0.0 0.00 0.00 0.00 73 979.5
20260509071659 26 0 0.0 0.0 0.00 0.00 0.00 73 979.5
20260509071559 26 0 0.0 0.0 0.00 0.00 0.00 73 979.5
20260509071459 26 0 0.0 0.0 0.00 0.00 0.00 73 979.5
20260509071358 26 0 0.0 0.0 0.00 0.00 0.00 73 979.5
20260509071258 26 0 0.0 0.0 0.00 0.00 0.00 73 979.5
20260509071158 26 0 0.0 0.0 0.00 0.00 0.00 73 979.5
20260509071058 26 0 0.0 0.0 0.00 0.00 0.00 73 979.5
20260509070958 26 0 0.0 0.0 0.00 0.00 0.00 73 979.5
20260509070858 26 0 0.0 0.0 0.00 0.00 0.00 72 979.4
20260509070757 26 0 0.0 0.0 0.00 0.00 0.00 72 979.4
20260509070657 26 0 0.0 0.0 0.00 0.00 0.00 72 979.4
20260509070557 26 0 0.0 0.0 0.00 0.00 0.00 72 979.4
20260509070457 26 0 0.0 0.0 0.00 0.00 0.00 72 979.4
20260509070356 26 0 0.0 0.0 0.00 0.00 0.00 72 979.4
20260509070256 26 0 0.0 0.0 0.00 0.00 0.00 72 979.4
20260509070156 26 0 0.0 0.0 0.00 0.00 0.00 72 979.4
20260509070056 26 0 0.0 0.0 0.00 0.00 0.00 72 979.4
20260509065956 26 0 0.0 0.0 0.00 0.00 0.00 72 979.4
20260509065855 26 0 0.0 0.0 0.00 0.00 0.00 72 979.3
20260509065755 26 0 0.0 0.0 0.00 0.00 0.00 72 979.3
20260509065655 26 0 0.0 0.0 0.00 0.00 0.00 71 979.3
20260509065555 26 0 0.0 0.0 0.00 0.00 0.00 71 979.3
20260509065455 26 0 0.0 0.0 0.00 0.00 0.00 71 979.3
20260509065354 26 0 0.0 0.0 0.00 0.00 0.00 71 979.4
20260509065254 26 0 0.0 0.0 0.00 0.00 0.00 71 979.4
20260509065154 26 0 0.0 0.0 0.00 0.00 0.00 71 979.4
20260509065054 26 0 0.0 0.0 0.00 0.00 0.00 71 979.3
20260509064954 26 0 0.0 0.0 0.00 0.00 0.00 71 979.3
20260509064854 26 0 0.0 0.0 0.00 0.00 0.00 70 979.3
20260509064753 26 0 0.0 0.0 0.00 0.00 0.00 70 979.2
20260509064653 27 0 0.0 0.0 0.00 0.00 0.00 70 979.3
20260509064553 27 0 0.0 0.0 0.00 0.00 0.00 70 979.2
20260509064453 27 0 0.0 0.0 0.00 0.00 0.00 70 979.3
20260509064353 27 0 0.0 0.0 0.00 0.00 0.00 69 979.2
20260509064252 27 0 0.0 0.0 0.00 0.00 0.00 69 979.2
20260509064152 27 0 0.0 0.0 0.00 0.00 0.00 69 979.2
20260509064052 27 0 0.0 0.0 0.00 0.00 0.00 69 979.2
20260509063952 27 0 0.0 0.0 0.00 0.00 0.00 69 979.1
20260509063852 27 0 0.0 0.0 0.00 0.00 0.00 68 979.1
20260509063752 27 0 0.0 0.0 0.00 0.00 0.00 68 979.1
20260509063651 27 0 0.0 0.0 0.00 0.00 0.00 68 979.1
20260509063551 27 0 0.0 0.0 0.00 0.00 0.00 68 979.0
20260509063451 27 0 0.0 0.0 0.00 0.00 0.00 68 979.0
20260509063351 27 0 0.0 0.0 0.00 0.00 0.00 68 979.1
20260509063251 27 0 0.0 0.0 0.00 0.00 0.00 67 979.0
20260509063150 27 0 0.0 0.0 0.00 0.00 0.00 67 979.0
20260509063050 27 0 0.0 0.0 0.00 0.00 0.00 67 979.1
20260509062950 27 0 0.0 0.0 0.00 0.00 0.00 67 979.0
20260509062850 27 0 0.0 0.0 0.00 0.00 0.00 67 979.0
20260509062750 27 0 0.0 0.0 0.00 0.00 0.00 67 979.0
20260509062650 27 0 0.0 0.0 0.00 0.00 0.00 67 978.9
20260509062549 27 0 0.0 0.0 0.00 0.00 0.00 67 978.9
20260509062449 27 0 0.0 0.0 0.00 0.00 0.00 67 978.8
20260509062349 27 0 0.0 0.0 0.00 0.00 0.00 66 978.8
20260509062249 27 0 0.0 0.0 0.00 0.00 0.00 66 978.8
20260509062149 27 0 0.0 0.0 0.00 0.00 0.00 66 978.8
20260509062048 27 0 0.0 0.0 0.00 0.00 0.00 66 978.8
20260509061948 27 0 0.0 0.0 0.00 0.00 0.00 66 978.8
20260509061848 27 0 0.0 0.0 0.00 0.00 0.00 66 978.9
20260509061748 27 0 0.0 0.0 0.00 0.00 0.00 66 978.9
20260509061648 27 0 0.0 0.0 0.00 0.00 0.00 66 978.9
20260509061548 27 0 0.0 0.0 0.00 0.00 0.00 65 978.8
20260509061447 27 0 0.0 0.0 0.00 0.00 0.00 65 978.8
20260509061347 28 0 0.0 0.0 0.00 0.00 0.00 65 978.8
20260509061247 28 0 0.0 0.0 0.00 0.00 0.00 65 978.8
20260509061147 28 0 0.0 0.0 0.00 0.00 0.00 65 978.8
20260509061046 28 0 0.0 0.0 0.00 0.00 0.00 64 978.8
20260509060946 28 0 0.0 0.0 0.00 0.00 0.00 64 978.8
20260509060846 28 0 0.0 0.0 0.00 0.00 0.00 64 978.7
20260509060746 28 0 0.0 0.0 0.00 0.00 0.00 64 978.7
20260509060646 28 0 0.0 0.0 0.00 0.00 0.00 64 978.7
20260509060545 28 0 0.0 0.0 0.00 0.00 0.00 64 978.7
20260509060445 28 0 0.0 0.0 0.00 0.00 0.00 63 978.7
20260509060345 28 0 0.0 0.0 0.00 0.00 0.00 63 978.7
20260509060245 28 0 0.0 0.0 0.00 0.00 0.00 63 978.6
20260509060145 28 0 0.0 0.0 0.00 0.00 0.00 63 978.7
20260509060044 28 0 0.0 0.0 0.00 0.00 0.00 62 978.6
20260509055944 28 0 0.0 0.0 0.00 0.00 0.00 62 978.7
20260509055844 28 0 0.0 0.0 0.00 0.00 0.00 62 978.6
20260509055744 28 0 0.0 0.0 0.00 0.00 0.00 62 978.6
20260509055644 28 0 0.0 0.0 0.00 0.00 0.00 62 978.6
20260509055543 28 0 0.0 0.0 0.00 0.00 0.00 62 978.5
20260509055443 28 0 0.0 0.0 0.00 0.00 0.00 62 978.5
20260509055343 28 0 0.0 0.0 0.00 0.00 0.00 61 978.5
20260509055243 28 0 0.0 0.0 0.00 0.00 0.00 61 978.4
20260509055143 28 0 0.0 0.0 0.00 0.00 0.00 61 978.4
20260509055042 28 0 0.0 0.0 0.00 0.00 0.00 61 978.4
20260509054942 28 0 0.0 0.0 0.00 0.00 0.00 61 978.4
20260509054842 29 0 0.0 0.0 0.00 0.00 0.00 61 978.4
20260509054742 29 0 0.0 0.0 0.00 0.00 0.00 61 978.4
20260509054642 29 0 0.0 0.0 0.00 0.00 0.00 61 978.3
20260509054542 29 0 0.0 0.0 0.00 0.00 0.00 61 978.3
20260509054441 29 0 0.0 0.0 0.00 0.00 0.00 60 978.3
20260509054341 29 0 0.0 0.0 0.00 0.00 0.00 60 978.3
20260509054241 29 0 0.0 0.0 0.00 0.00 0.00 60 978.2
20260509054141 29 0 0.0 0.0 0.00 0.00 0.00 60 978.2
20260509054041 30 0 0.0 0.0 0.00 0.00 0.00 60 978.2
20260509053940 30 0 0.0 0.0 0.00 0.00 0.00 59 978.3
20260509053840 30 0 0.0 0.0 0.00 0.00 0.00 59 978.2
20260509053740 30 0 0.0 0.0 0.00 0.00 0.00 59 978.2
20260509053640 30 0 0.0 0.0 0.00 0.00 0.00 59 978.3
20260509053540 30 0 0.0 0.0 0.00 0.00 0.00 59 978.2
20260509053439 30 0 0.0 0.0 0.00 0.00 0.00 58 978.2
20260509053339 30 0 0.0 0.0 0.00 0.00 0.00 58 978.1
20260509053239 30 0 0.0 0.0 0.00 0.00 0.00 58 978.1
20260509053139 30 0 0.0 0.0 0.00 0.00 0.00 57 978.1
20260509053039 30 0 0.0 0.0 0.00 0.00 0.00 57 978.1
20260509052938 30 0 0.0 0.0 0.00 0.00 0.00 57 978.0
20260509052838 30 0 0.0 0.0 0.00 0.00 0.00 57 978.0
20260509052738 30 0 0.0 0.0 0.00 0.00 0.00 57 978.1
20260509052638 30 0 0.0 0.0 0.00 0.00 0.00 57 978.0
20260509052538 31 0 0.0 0.0 0.00 0.00 0.00 57 978.0
20260509052437 31 0 0.0 0.0 0.00 0.00 0.00 58 978.0
20260509052337 31 0 0.0 0.0 0.00 0.00 0.00 58 978.0
20260509052237 31 0 0.0 0.0 0.00 0.00 0.00 58 978.0
20260509052137 31 0 0.0 0.0 0.00 0.00 0.00 58 977.9
20260509052037 31 0 0.0 0.0 0.00 0.00 0.00 58 977.9
20260509051936 31 0 0.0 0.0 0.00 0.00 0.00 58 977.9
20260509051836 31 0 0.0 0.0 0.00 0.00 0.00 59 978.0
20260509051736 31 0 0.0 0.0 0.00 0.00 0.00 59 977.9
20260509051636 30 0 0.0 0.0 0.00 0.00 0.00 59 977.9
20260509051535 30 0 0.0 0.0 0.00 0.00 0.00 59 977.9
20260509051435 30 0 0.0 0.0 0.00 0.00 0.00 60 977.9
20260509051335 30 0 0.0 0.0 0.00 0.00 0.00 60 978.0
20260509051235 30 0 0.0 0.0 0.00 0.00 0.00 60 977.9
20260509051135 30 0 0.0 0.0 0.00 0.00 0.00 60 977.9
20260509051034 30 0 0.0 0.0 0.00 0.00 0.00 60 977.9
20260509050934 30 0 0.0 0.0 0.00 0.00 0.00 61 977.9
20260509050834 30 0 0.0 0.0 0.00 0.00 0.00 61 977.9
20260509050734 30 0 0.0 0.0 0.00 0.00 0.00 61 977.9
20260509050634 30 0 0.0 0.0 0.00 0.00 0.00 61 977.9
20260509050533 30 0 0.0 0.0 0.00 0.00 0.00 61 977.9
20260509050433 30 0 0.0 0.0 0.00 0.00 0.00 61 977.9
20260509050333 30 0 0.0 0.0 0.00 0.00 0.00 61 977.9
20260509050233 30 0 0.0 0.0 0.00 0.00 0.00 61 978.0
20260509050133 30 0 0.0 0.0 0.00 0.00 0.00 61 978.0
20260509050033 30 0 0.0 0.0 0.00 0.00 0.00 61 978.0
20260509045932 30 0 0.0 0.0 0.00 0.00 0.00 61 978.0
20260509045832 30 0 0.0 0.0 0.00 0.00 0.00 61 978.0
20260509045732 30 0 0.0 0.0 0.00 0.00 0.00 60 978.0
20260509045632 30 0 0.0 0.0 0.00 0.00 0.00 60 978.0
20260509045532 30 0 0.0 0.0 0.00 0.00 0.00 60 978.0
20260509045431 30 0 0.0 0.0 0.00 0.00 0.00 59 977.9
20260509045331 30 0 0.0 0.0 0.00 0.00 0.00 59 977.9
20260509045231 30 0 0.0 0.0 0.00 0.00 0.00 59 977.9
20260509045131 30 0 0.0 0.0 0.00 0.00 0.00 59 977.8
20260509045031 30 0 0.0 0.0 0.00 0.00 0.00 59 977.9
20260509044930 30 0 0.0 0.0 0.00 0.00 0.00 59 977.8
20260509044830 30 0 0.0 0.0 0.00 0.00 0.00 59 977.8
20260509044730 30 0 0.0 0.0 0.00 0.00 0.00 58 977.8
20260509044630 30 0 0.0 0.0 0.00 0.00 0.00 58 977.8
20260509044530 30 0 0.0 0.0 0.00 0.00 0.00 58 977.8
20260509044429 30 0 0.0 0.0 0.00 0.00 0.00 58 977.7
20260509044329 30 0 0.0 0.0 0.00 0.00 0.00 58 977.7
20260509044229 30 0 0.0 0.0 0.00 0.00 0.00 57 977.8
20260509044129 30 0 0.0 0.0 0.00 0.00 0.00 57 977.7
20260509044029 30 0 0.0 0.0 0.00 0.00 0.00 57 977.7
20260509043928 30 0 0.0 0.0 0.00 0.00 0.00 57 977.7
20260509043828 30 0 0.0 0.0 0.00 0.00 0.00 57 977.7
20260509043728 30 0 0.0 0.0 0.00 0.00 0.00 56 977.7
20260509043628 31 0 0.0 0.0 0.00 0.00 0.00 56 977.7
20260509043528 31 0 0.0 0.0 0.00 0.00 0.00 56 977.6
20260509043427 31 0 0.0 0.0 0.00 0.00 0.00 56 977.6
20260509043327 31 0 0.0 0.0 0.00 0.00 0.00 56 977.6
20260509043227 31 0 0.0 0.0 0.00 0.00 0.00 55 977.7
20260509043127 31 0 0.0 0.0 0.00 0.00 0.00 55 977.6
20260509043027 31 0 0.0 0.0 0.00 0.00 0.00 55 977.6
20260509042926 31 0 0.0 0.0 0.00 0.00 0.00 54 977.6
20260509042826 31 0 0.0 0.0 0.00 0.00 0.00 54 977.5
20260509042726 31 0 0.0 0.0 0.00 0.00 0.00 53 977.6
20260509042626 31 0 0.0 0.0 0.00 0.00 0.00 53 977.5
20260509042526 32 0 0.0 0.0 0.00 0.00 0.00 53 977.5
20260509042425 32 0 0.0 0.0 0.00 0.00 0.00 53 977.5
20260509042325 32 0 0.0 0.0 0.00 0.00 0.00 52 977.5
20260509042225 32 0 0.0 0.0 0.00 0.00 0.00 52 977.5
20260509042125 32 0 0.0 0.0 0.00 0.00 0.00 52 977.4
20260509042024 32 0 0.0 0.0 0.00 0.00 0.00 52 977.4
20260509041924 32 0 0.0 0.0 0.00 0.00 0.00 52 977.4
20260509041824 32 0 0.0 0.0 0.00 0.00 0.00 51 977.4
20260509041724 32 0 0.0 0.0 0.00 0.00 0.00 51 977.4
20260509041624 33 0 0.0 0.0 0.00 0.00 0.00 51 977.4
20260509041523 33 0 0.0 0.0 0.00 0.00 0.00 51 977.4
20260509041423 33 0 0.0 0.0 0.00 0.00 0.00 51 977.3
20260509041323 33 0 0.0 0.0 0.00 0.00 0.00 50 977.3
20260509041223 33 0 0.0 0.0 0.00 0.00 0.00 50 977.3
20260509041123 33 0 0.0 0.0 0.00 0.00 0.00 50 977.3
20260509041022 33 0 0.0 0.0 0.00 0.00 0.00 50 977.3
20260509040922 33 0 0.0 0.0 0.00 0.00 0.00 50 977.3
20260509040822 33 0 0.0 0.0 0.00 0.00 0.00 50 977.3
20260509040722 34 0 0.0 0.0 0.00 0.00 0.00 50 977.4
20260509040621 34 0 0.0 0.0 0.00 0.00 0.00 50 977.3
20260509040521 34 0 0.0 0.0 0.00 0.00 0.00 50 977.3
20260509040421 34 0 0.0 0.0 0.00 0.00 0.00 50 977.3
20260509040321 34 0 0.0 0.0 0.00 0.00 0.00 50 977.3
20260509040221 34 0 0.0 0.0 0.00 0.00 0.00 49 977.3
20260509040120 34 0 0.0 0.0 0.00 0.00 0.00 49 977.3
20260509040020 34 0 0.0 0.0 0.00 0.00 0.00 49 977.3
20260509035920 34 0 0.0 0.0 0.00 0.00 0.00 49 977.2
20260509035820 34 0 0.0 0.0 0.00 0.00 0.00 49 977.3
20260509035719 35 0 0.0 0.0 0.00 0.00 0.00 49 977.2
20260509035619 35 0 0.0 0.0 0.00 0.00 0.00 49 977.2
20260509035519 35 0 0.0 0.0 0.00 0.00 0.00 49 977.2
20260509035419 35 0 0.0 0.0 0.00 0.00 0.00 49 977.3
20260509035318 35 0 0.0 0.0 0.00 0.00 0.00 48 977.2
20260509035218 35 0 0.0 0.0 0.00 0.00 0.00 47 977.2
20260509035118 35 0 0.0 0.0 0.00 0.00 0.00 47 977.1
20260509035018 35 0 0.0 0.0 0.00 0.00 0.00 46 977.2
20260509034917 35 0 0.0 0.0 0.00 0.00 0.00 45 977.1
20260509034817 35 0 0.0 0.0 0.00 0.00 0.00 45 977.1
20260509034717 35 0 0.0 0.0 0.00 0.00 0.00 44 977.1
20260509034617 36 0 0.0 0.0 0.00 0.00 0.00 44 977.0
20260509034517 36 0 0.0 0.0 0.00 0.00 0.00 44 977.0
20260509034416 36 0 0.0 0.0 0.00 0.00 0.00 44 977.0
20260509034316 36 0 0.0 0.0 0.00 0.00 0.00 44 977.0
20260509034216 36 0 0.0 0.0 0.00 0.00 0.00 44 977.0
20260509034116 36 0 0.0 0.0 0.00 0.00 0.00 44 977.0
20260509034015 36 0 0.0 0.0 0.00 0.00 0.00 44 977.0
20260509033915 37 0 0.0 0.0 0.00 0.00 0.00 44 977.0
20260509033815 37 0 0.0 0.0 0.00 0.00 0.00 45 977.0
20260509033715 37 0 0.0 0.0 0.00 0.00 0.00 44 977.0
20260509033614 37 0 0.0 0.0 0.00 0.00 0.00 44 977.0
20260509033514 37 0 0.0 0.0 0.00 0.00 0.00 44 977.0
20260509033414 37 0 0.0 0.0 0.00 0.00 0.00 44 977.0
20260509033314 37 0 0.0 0.0 0.00 0.00 0.00 44 977.0
20260509033214 37 0 0.0 0.0 0.00 0.00 0.00 44 977.0
20260509033113 37 0 0.0 0.0 0.00 0.00 0.00 44 977.0
20260509033013 37 0 0.0 0.0 0.00 0.00 0.00 44 977.0
20260509032913 37 0 0.0 0.0 0.00 0.00 0.00 45 977.0
20260509032813 37 0 0.0 0.0 0.00 0.00 0.00 45 977.0
20260509032712 37 0 0.0 0.0 0.00 0.00 0.00 44 976.9
20260509032612 37 0 0.0 0.0 0.00 0.00 0.00 45 977.0
20260509032512 37 0 0.0 0.0 0.00 0.00 0.00 45 976.9
20260509032412 37 0 0.0 0.0 0.00 0.00 0.00 45 976.9
20260509032311 37 0 0.0 0.0 0.00 0.00 0.00 45 976.9
20260509032211 37 0 0.0 0.0 0.00 0.00 0.00 45 976.9
20260509032111 37 0 0.0 0.0 0.00 0.00 0.00 45 976.9
20260509032011 36 0 0.0 0.0 0.00 0.00 0.00 45 976.8
20260509031911 36 0 0.0 0.0 0.00 0.00 0.00 45 976.8
20260509031810 36 0 0.0 0.0 0.00 0.00 0.00 45 976.8
20260509031710 36 0 0.0 0.0 0.00 0.00 0.00 45 977.0
20260509031610 36 0 0.0 0.0 0.00 0.00 0.00 45 976.9
20260509031510 36 0 0.0 0.0 0.00 0.00 0.00 45 976.9
20260509031409 36 0 0.0 0.0 0.00 0.00 0.00 47 977.0
20260509031309 36 0 0.0 0.0 0.00 0.00 0.00 47 977.0
20260509031209 36 0 0.0 0.0 0.00 0.00 0.00 47 976.9
20260509031109 36 0 0.0 0.0 0.00 0.00 0.00 47 977.0
20260509031009 35 0 0.0 0.0 0.00 0.00 0.00 48 976.9
20260509030908 35 0 0.0 0.0 0.00 0.00 0.00 48 977.0
20260509030808 35 0 0.0 0.0 0.00 0.00 0.00 48 977.0
20260509030708 35 0 0.0 0.0 0.00 0.00 0.00 48 976.9
20260509030608 35 0 0.0 0.0 0.00 0.00 0.00 48 976.9
20260509030507 35 0 0.0 0.0 0.00 0.00 0.00 48 976.9
20260509030407 35 0 0.0 0.0 0.00 0.00 0.00 48 977.0
20260509030307 34 0 0.0 0.0 0.00 0.00 0.00 48 977.0
20260509030207 34 0 0.0 0.0 0.00 0.00 0.00 48 976.9
20260509030106 34 0 0.0 0.0 0.00 0.00 0.00 47 977.0
20260509030006 34 0 0.0 0.0 0.00 0.00 0.00 48 977.0
20260509025906 34 0 0.0 0.0 0.00 0.00 0.00 49 977.0
20260509025806 34 0 0.0 0.0 0.00 0.00 0.00 49 977.0
20260509025706 33 0 0.0 0.0 0.00 0.00 0.00 49 977.0
20260509025605 33 0 0.0 0.0 0.00 0.00 0.00 50 977.0
20260509025505 33 0 0.0 0.0 0.00 0.00 0.00 50 976.9
20260509025405 33 0 0.0 0.0 0.00 0.00 0.00 51 977.0
20260509025306 33 0 0.0 0.0 0.00 0.00 0.00 51 977.0
20260509025205 33 0 0.0 0.0 0.00 0.00 0.00 52 977.1
20260509025104 33 0 0.0 0.0 0.00 0.00 0.00 52 977.0
20260509025004 33 0 0.0 0.0 0.00 0.00 0.00 52 977.0
20260509024904 33 0 0.0 0.0 0.00 0.00 0.00 51 977.0
20260509024804 33 0 0.0 0.0 0.00 0.00 0.00 53 977.0
20260509024704 33 0 0.0 0.0 0.00 0.00 0.00 53 977.1
20260509024603 33 0 0.0 0.0 0.00 0.00 0.00 54 977.0
20260509024503 33 0 0.0 0.0 0.00 0.00 0.00 53 977.1
20260509024403 33 0 0.0 0.0 0.00 0.00 0.00 53 977.1
20260509024303 33 0 0.0 0.0 0.00 0.00 0.00 53 977.0
20260509024202 33 0 0.0 0.0 0.00 0.00 0.00 53 977.0
20260509024102 33 0 0.0 0.0 0.00 0.00 0.00 53 977.0
20260509024002 33 0 0.0 0.0 0.00 0.00 0.00 53 977.0
20260509023902 33 0 0.0 0.0 0.00 0.00 0.00 53 977.0
20260509023802 33 0 0.0 0.0 0.00 0.00 0.00 54 977.1
20260509023701 33 0 0.0 0.0 0.00 0.00 0.00 55 977.0
20260509023601 33 0 0.0 0.0 0.00 0.00 0.00 55 977.0
20260509023501 33 0 0.0 0.0 0.00 0.00 0.00 55 977.1
20260509023401 33 0 0.0 0.0 0.00 0.00 0.00 55 977.1
20260509023301 33 0 0.0 0.0 0.00 0.00 0.00 55 977.1
20260509023200 33 0 0.0 0.0 0.00 0.00 0.00 54 977.2
20260509023100 33 0 0.0 0.0 0.00 0.00 0.00 54 977.1
20260509023000 33 0 0.0 0.0 0.00 0.00 0.00 54 977.1
20260509022900 33 0 0.0 0.0 0.00 0.00 0.00 53 977.2
20260509022759 33 0 0.0 0.0 0.00 0.00 0.00 53 977.2
20260509022659 33 0 0.0 0.0 0.00 0.00 0.00 52 977.1
20260509022559 33 0 0.0 0.0 0.00 0.00 0.00 52 977.1
20260509022459 33 0 0.0 0.0 0.00 0.00 0.00 51 977.0
20260509022359 33 0 0.0 0.0 0.00 0.00 0.00 51 977.0
20260509022258 33 0 0.0 0.0 0.00 0.00 0.00 50 977.0
20260509022158 33 0 0.0 0.0 0.00 0.00 0.00 50 977.0
20260509022058 33 0 0.0 0.0 0.00 0.00 0.00 50 977.0
20260509021958 33 0 0.0 0.0 0.00 0.00 0.00 50 977.1
20260509021857 34 0 0.0 0.0 0.00 0.00 0.00 49 977.1
20260509021757 34 0 0.0 0.0 0.00 0.00 0.00 49 977.1
20260509021657 34 0 0.0 0.0 0.00 0.00 0.00 49 977.1
20260509021557 34 0 0.0 0.0 0.00 0.00 0.00 49 977.1
20260509021457 34 0 0.0 0.0 0.00 0.00 0.00 49 977.1
20260509021356 34 0 0.0 0.0 0.00 0.00 0.00 49 977.1
20260509021256 34 0 0.0 0.0 0.00 0.00 0.00 50 977.1
20260509021156 34 0 0.0 0.0 0.00 0.00 0.00 51 977.0
20260509021056 34 0 0.0 0.0 0.00 0.00 0.00 51 977.1
20260509020956 34 0 0.0 0.0 0.00 0.00 0.00 52 977.1
20260509020855 34 0 0.0 0.0 0.00 0.00 0.00 52 977.1
20260509020755 34 0 0.0 0.0 0.00 0.00 0.00 52 977.1
20260509020655 33 0 0.0 0.0 0.00 0.00 0.00 52 977.1
20260509020555 33 0 0.0 0.0 0.00 0.00 0.00 51 977.1
20260509020455 34 0 0.0 0.0 0.00 0.00 0.00 51 977.1
20260509020355 34 0 0.0 0.0 0.00 0.00 0.00 51 977.2
20260509020254 34 0 0.0 0.0 0.00 0.00 0.00 50 977.1
20260509020154 34 0 0.0 0.0 0.00 0.00 0.00 50 977.2
20260509020054 34 0 0.0 0.0 0.00 0.00 0.00 50 977.2
20260509015954 34 0 0.0 0.0 0.00 0.00 0.00 50 977.2
20260509015853 34 0 0.0 0.0 0.00 0.00 0.00 50 977.2
20260509015753 35 0 0.0 0.0 0.00 0.00 0.00 50 977.2
20260509015653 35 0 0.0 0.0 0.00 0.00 0.00 49 977.2
20260509015553 35 0 0.0 0.0 0.00 0.00 0.00 49 977.2
20260509015453 35 0 0.0 0.0 0.00 0.00 0.00 50 977.3
20260509015352 35 0 0.0 0.0 0.00 0.00 0.00 50 977.3
20260509015252 35 0 0.0 0.0 0.00 0.00 0.00 50 977.3
20260509015152 35 0 0.0 0.0 0.00 0.00 0.00 51 977.3
20260509015052 35 0 0.0 0.0 0.00 0.00 0.00 51 977.2
20260509014952 35 0 0.0 0.0 0.00 0.00 0.00 52 977.2
20260509014851 35 0 0.0 0.0 0.00 0.00 0.00 52 977.3
20260509014751 35 0 0.0 0.0 0.00 0.00 0.00 52 977.3
20260509014651 35 0 0.0 0.0 0.00 0.00 0.00 52 977.4
20260509014551 35 0 0.0 0.0 0.00 0.00 0.00 52 977.4
20260509014451 35 0 0.0 0.0 0.00 0.00 0.00 52 977.5
20260509014350 35 0 0.0 0.0 0.00 0.00 0.00 52 977.5
20260509014250 35 0 0.0 0.0 0.00 0.00 0.00 52 977.5
20260509014150 35 0 0.0 0.0 0.00 0.00 0.00 52 977.4
20260509014050 35 0 0.0 0.0 0.00 0.00 0.00 52 977.5
20260509013950 35 0 0.0 0.0 0.00 0.00 0.00 52 977.5
20260509013849 35 0 0.0 0.0 0.00 0.00 0.00 52 977.6
20260509013749 35 0 0.0 0.0 0.00 0.00 0.00 52 977.6
20260509013649 35 0 0.0 0.0 0.00 0.00 0.00 51 977.6
20260509013549 35 0 0.0 0.0 0.00 0.00 0.00 51 977.6
20260509013448 35 0 0.0 0.0 0.00 0.00 0.00 51 977.6
20260509013348 35 0 0.0 0.0 0.00 0.00 0.00 51 977.7
20260509013248 35 0 0.0 0.0 0.00 0.00 0.00 52 977.8
20260509013148 35 0 0.0 0.0 0.00 0.00 0.00 51 977.8
20260509013047 35 0 0.0 0.0 0.00 0.00 0.00 52 977.8
20260509012947 35 0 0.0 0.0 0.00 0.00 0.00 52 977.8
20260509012847 35 0 0.0 0.0 0.00 0.00 0.00 52 977.8
20260509012747 35 0 0.0 0.0 0.00 0.00 0.00 52 977.8
20260509012647 35 0 0.0 0.0 0.00 0.00 0.00 52 977.7
20260509012546 35 0 0.0 0.0 0.00 0.00 0.00 51 977.7
20260509012446 35 0 0.0 0.0 0.00 0.00 0.00 51 977.7
20260509012346 35 0 0.0 0.0 0.00 0.00 0.00 51 977.7
20260509012246 35 0 0.0 0.0 0.00 0.00 0.00 51 977.7
20260509012146 35 0 0.0 0.0 0.00 0.00 0.00 50 977.7
20260509012045 35 0 0.0 0.0 0.00 0.00 0.00 50 977.7
20260509011945 35 0 0.0 0.0 0.00 0.00 0.00 50 977.7
20260509011845 35 0 0.0 0.0 0.00 0.00 0.00 50 977.8
20260509011745 35 0 0.0 0.0 0.00 0.00 0.00 50 977.9
20260509011645 35 0 0.0 0.0 0.00 0.00 0.00 50 977.8
20260509011544 35 0 0.0 0.0 0.00 0.00 0.00 50 977.9
20260509011444 35 0 0.0 0.0 0.00 0.00 0.00 50 977.9
20260509011344 35 0 0.0 0.0 0.00 0.00 0.00 50 977.9
20260509011244 35 0 0.0 0.0 0.00 0.00 0.00 50 977.9
20260509011144 35 0 0.0 0.0 0.00 0.00 0.00 49 977.9
20260509011043 35 0 0.0 0.0 0.00 0.00 0.00 49 977.9
20260509010943 35 0 0.0 0.0 0.00 0.00 0.00 49 977.9
20260509010843 35 0 0.0 0.0 0.00 0.00 0.00 49 977.9
20260509010743 35 0 0.0 0.0 0.00 0.00 0.00 49 978.0
20260509010643 36 0 0.0 0.0 0.00 0.00 0.00 48 978.0
20260509010542 36 0 0.0 0.0 0.00 0.00 0.00 48 978.0